839  
ASUS43 KEAX 230110  
RWREAX  
 
WEATHER ROUNDUP FOR EASTERN KANSAS AND NORTHWEST MISSOURI  
NATIONAL WEATHER SERVICE KANSAS CITY/PLEASANT HILL MO  
800 PM CDT SUN APR 22 2018  
 
KSZ040-057-103>105-MOZ028-029-037-043-230200-   
..KANSAS CITY METROPOLITAN AREA
 
 
 
CITY SKY/WX TMP DP RH WIND PRES REMARKS
 
K.C. INTL MOCLDY 62 42 47 E13 30.08R  
K.C. DOWNTOWN CLOUDY 63 44 50 NE9 30.06R  
LEES SUMMIT CLOUDY 60 46 59 NE8 30.06F  
OLATHE - IXD CLOUDY 61 45 55 NE10 30.07R  
OLATHE - OJC CLOUDY 60 45 57 NE9 30.06R  
LAWRENCE CLOUDY 65 43 44 NE10 30.06R  
 

 
 
MOZ001>008-011>017-020>025-030>033-038>040-044>046-053-054-230200-   
..NORTHERN AND CENTRAL MISSOURI
 
 
 
CITY SKY/WX TMP DP RH WIND PRES REMARKS
 
ST. JOSEPH CLOUDY 66 41 40 E15G23 30.09R  
MOSBY CLOUDY 63 41 45 NE3 30.07F  
WARRENSBURG CLOUDY 59 45 58 NE8 30.05S  
WHITEMAN AFB CLOUDY 59 45 60 NE10 30.01S  
CLINTON CLOUDY 57 45 62 NE17G24 30.04R  
SEDALIA CLOUDY 58 46 64 NE9 30.06R  
WARSAW NOT AVBL  
CHILLICOTHE N/A 63 41 44 NE8 30.11S  
KIRKSVILLE CLOUDY 58 35 42 NE9 30.13R  
 

 
 
MOZ041-047>049-056>058-063>065-088>090-097-230200-   
..EASTERN AND SOUTHERN MISSOURI
 
 
 
CITY SKY/WX TMP DP RH WIND PRES REMARKS
 
ST. LOUIS INTL CLOUDY 59 46 62 NE10 30.04F  
SPIRIT OF STL CLOUDY 58 46 64 NE9 30.03S  
COLUMBIA CLOUDY 56 39 53 NE13 30.05S  
JEFFERSON CITY LGT RAIN 54 43 66 E6 30.05R  
ROLLA CLOUDY 50 46 86 NE17G26 30.01S  
OSAGE BEACH LGT RAIN 50 47 89 NE12G22 30.03R  
SPRINGFIELD LGT RAIN 53 52 96 NE17G25 29.95S  
BRANSON LGT RAIN 54 54 100 N9 29.93S FOG  
JOPLIN CLOUDY 56 53 90 NE13 29.99R  
WEST PLAINS LGT RAIN 53 51 93 N13 29.91R  
 

 
 
IAZ060-094-KSZ022-034>040-054-083-096-NEZ052-066-093-230200-    
..KANSAS...SOUTHEAST NEBRASKA AND IOWA
 
 
 
CITY SKY/WX TMP DP RH WIND PRES REMARKS
 
TOPEKA CLOUDY 63 45 51 NE5 30.07R  
MANHATTAN CLOUDY 64 44 48 NE8 30.08R  
EMPORIA CLOUDY 57 48 72 NE5 30.07R  
CHANUTE CLOUDY 55 52 89 NW5 30.04S  
WICHITA CLOUDY 56 44 64 N13 30.08S  
OMAHA MOCLDY 65 31 28 E8 30.14R  
LINCOLN CLOUDY 63 34 33 E7 30.14S  
FALLS CITY CLEAR 64 37 36 NE6 30.09S  
LAMONI MOCLDY 64 36 35 E12G17 30.12R  
DES MOINES MOCLDY 64 18 17 E8 30.16F  
 

 
 
 
 
CLICK HERE TO GO TO PREVIOUS BULLETINS.

The Nexlab MO Page
The Nexlab KS Page Main Text Page